Regional Weather Roundup
Issued by NWS

Home | Current Version | Previous Version | Graphics & Text | Print | Product List | Glossary On
Versions: 1 2 3 4 5 6 7 8 9 10 11 12 13 14 15 16 17 18 19 20 21 22 23 24 25 26 27 28 29 30 31 32 33 34 35 36 37 38 39 40 41 42 43 44 45 46 47 48 49 50
000
ASUS43 KMKX 021510
RWRWI

WISCONSIN REGIONAL WEATHER ROUNDUP
NATIONAL WEATHER SERVICE MILWAUKEE/SULLIVAN WI
900 AM CST MON MAR 02 2015

NOTE: "FAIR" INDICATES FEW OR NO CLOUDS BELOW 12,000 FEET WITH NO
SIGNIFICANT WEATHER AND/OR OBSTRUCTIONS TO VISIBILITY.

WIZ001-002-006>008-014>016-023>028-021600-
NORTHWEST WISCONSIN

CITY           SKY/WX    TMP DP  RH WIND       PRES   REMARKS
SUPERIOR ARPT  SUNNY     11   5  76 SW7       30.43S WCI   1
ASHLAND        SUNNY     12   4  70 SW6       30.42S WCI   3
HAYWARD        MOSUNNY    8   3  80 S6        30.41R WCI  -2
SIREN          SUNNY     13   8  81 SW9       30.45R WCI   1
CUMBERLAND     MOSUNNY    5   1  85 S5        30.43R WCI  -4
RICE LAKE      MOSUNNY    7   4  88 SW3       30.46R
CHETEK         MOSUNNY   12   6  79 SW5       30.46R WCI   4
LADYSMITH      SUNNY      7   3  84 CALM      30.43R
EAU CLAIRE     SUNNY     13   5  70 SW6       30.48R WCI   4
MENOMONIE      SUNNY     15   7  70 SW3       30.48R
NEW RICHMOND   SUNNY     14   8  79 SW9       30.48R WCI   1
OSCEOLA        SUNNY     14  10  81 SW5       30.51R WCI   7
$$

WIZ003>005-009-010-017-018-021600-
NORTH CENTRAL WISCONSIN

CITY           SKY/WX    TMP DP  RH WIND       PRES   REMARKS
MANITOWISH WTR SUNNY     10   4  77 CALM      30.34F
ARBOR VITAE    SUNNY     13   6  75 CALM      30.34F
WOODRUFF       SUNNY     13   6  75 CALM      30.34F
RHINELANDER    SUNNY     13   6  74 VRB3      30.35F
EAGLE RIVER    SUNNY     13   4  69 W5        30.34S WCI   5
LAND O LAKES   FLURRIES  16   7  69 W3        30.35R
PHILLIPS       SUNNY      8   3  79 SW6       30.38R WCI  -2
TOMAHAWK       SUNNY     12   5  71 CALM      30.38R
MEDFORD        SUNNY      9   4  78 SW3       30.40R
MERRILL        SUNNY     12   5  72 SW6       30.41R WCI   3
$$

WIZ029-030-035-036-043>047-021600-
CENTRAL WISCONSIN

CITY           SKY/WX    TMP DP  RH WIND       PRES   REMARKS
WAUSAU         SUNNY     12   5  73 W5        30.41R WCI   4
MOSINEE          N/A     12   5  73 NW3       30.43R
MARSHFIELD     SUNNY     12   4  70 W6        30.43R WCI   3
STEVENS POINT  SUNNY     13   5  69 NW6       30.44S WCI   4
WAUPACA        SUNNY     20   8  59 N3        30.46S
WAUTOMA        SUNNY     17   7  65 NW6       30.49R WCI   9
WISC RAPIDS    SUNNY     14   5  67 NW6       30.48R WCI   5
CAMP DOUGLAS   SUNNY     18  10  73 W6        30.48R WCI   9
$$

WIZ011>013-019>022-031-037>040-048>050-021600-
NORTHEAST WISCONSIN

CITY           SKY/WX    TMP DP  RH WIND       PRES   REMARKS
ANTIGO         SUNNY     10   4  75 CALM      30.36F
SHAWANO        SUNNY     19   8  62 W3        30.44F
OCONTO         SUNNY     19   7  61 W7        30.45R WCI   9
STURGEON BAY   SUNNY     18   5  57 NW10      30.45S WCI   6
GREEN BAY      SUNNY     19   7  59 NW8       30.44F WCI   9
MANITOWOC      SUNNY     21   9  59 N13       30.46R WCI   9
APPLETON       SUNNY     16   7  67 W6        30.45R WCI   7
CLINTONVILLE   SUNNY     18   7  62 NW3       30.45R
OSHKOSH        SUNNY     18   8  65 NW8       30.46R WCI   8
$$

WIZ032>034-041-042-053>061-021600-
SOUTHWEST WISCONSIN

CITY           SKY/WX    TMP DP  RH WIND       PRES   REMARKS
LA CROSSE      SUNNY     18  10  71 CALM      30.52R
SPARTA         SUNNY     17   8  66 CALM      30.50F
VIROQUA        SUNNY     13  10  88 CALM      30.47R
BOSCOBEL       SUNNY     13   9  84 SW6       30.53R WCI   4
PRAIRIE DU CHI SUNNY     11   6  81 CALM      30.54R
PLATTEVILLE    SUNNY     11   9  89 CALM      30.50S
$$

WIZ056-057-062-063-064-067-068-021600-
SOUTH CENTRAL WISCONSIN

CITY           SKY/WX    TMP DP  RH WIND       PRES   REMARKS
REEDSBURG      SUNNY     16   8  71 NW5       30.49S WCI   9
BARABOO/DELLS  SUNNY     17   8  67 NW6       30.48F WCI   8
LONE ROCK      SUNNY     10   4  76 CALM      30.52R
MINERAL POINT  SUNNY     14  10  85 CALM      30.48R
MADISON        MOSUNNY   19   9  65 NW6       30.50R WCI  11
MIDDLETON      SUNNY     20  11  66 NW3       30.49S
WATERTOWN      SUNNY     19  11  71 NW8       30.49R WCI   8
MONROE         SUNNY     19  14  79 W3        30.48R
JANESVILLE     SUNNY     16   9  73 CALM      30.50S
$$

WIZ051-052-058>065-066-070>072-021600-
SOUTHEAST WISCONSIN

CITY           SKY/WX    TMP DP  RH WIND       PRES   REMARKS
MILWAUKEE      MOSUNNY   20   8  60 NW12      30.49R WCI   8
WAUKESHA       SUNNY     16   7  67 W7        30.50R WCI   6
MILWAUKEE/TIMM SUNNY     19   9  63 NW10      30.50R WCI   8
RACINE         SUNNY     18   9  68 W9        30.51R WCI   7
BURLINGTON     SUNNY     17   9  69 NW8       30.49S WCI   7
KENOSHA        SUNNY     18  10  71 NW9       30.49R WCI   7
FOND DU LAC    SUNNY     18   8  65 NW8       30.47R WCI   8
SHEBOYGAN      SUNNY     20   8  60 NW8       30.46R WCI  10
WEST BEND      SUNNY     19   9  63 NW9       30.47R WCI   9
JUNEAU         SUNNY     18   9  69 NW5       30.49R WCI  11
$$

LSZ147-162-021600-
LAKE SUPERIOR

STATION/POSITION TIME  TEMP    WIND        PRES    WAVE
                       AIR SEA DIR/SP/G            HT/PER
                 (UTC) (F)     (DEG/KT/KT) (MB)    (FT/S)
DEVILS ISLAND    1500   15     230/  9/ 11 1031.1R
PORT WING        1400    9     200/  6/ 10 1029.8R
SAXON HARBOR     1400   13     200/  7/ 10 1029.8R
$$

LMZ867-665-643>646-021600-
LAKE MICHIGAN

STATION/POSITION TIME  TEMP    WIND        PRES    WAVE
                       AIR SEA DIR/SP/G            HT/PER
                 (UTC) (F)     (DEG/KT/KT) (MB)    (FT/S)
NORTHPORT PIER   1406   19     290/  8/ 14 1029.8R
SISTER BAY       1443   27     280/  9/ 10   N/A
KEWAUNEE LAKESHO 1400   17     310/  7/  9 1029.9R
SHEBOYGAN LAKESH 1500   20     330/  9/ 10 1033.1R
PORT WASHINGTON  1440   20     310/  7/ 12 1032.8R
MILWAUKEE LAKESH 1400   18     300/  9/ 12   N/A
KENOSHA   LAKESH 1500   18     300/ 12/ 16 1032.2S
$$

TC  - TEMPERATURE IN CELSIUS
VSB - VISIBILITY IN STATUTE MILES
WCI - WIND CHILL INDEX
HX  - HEAT INDEX



USA.gov is the U.S. government's official web portal to all federal, state and local government web resources and services.